Regional Weather Roundup
Issued by NWS

Home | Current Version | Previous Version | Graphics & Text | Print | Product List | Glossary On
Versions: 1 2 3 4 5 6 7 8 9 10 11 12 13 14 15 16 17 18 19 20 21 22 23 24 25 26 27 28 29 30 31 32 33 34 35 36 37 38 39 40 41 42 43 44 45 46 47 48 49 50
414
ASUS43 KDMX 111703
RWRIA

WEATHER ROUNDUP FOR IOWA
NATIONAL WEATHER SERVICE DES MOINES IA
1100 AM CST THU FEB 11 2016

NOTE: "FAIR" INDICATES FEW OR NO CLOUDS BELOW 12,000 FEET WITH NO
SIGNIFICANT WEATHER AND/OR OBSTRUCTIONS TO VISIBILITY.

* - THESE STATIONS ARE NOT NWS STATIONS...THUS NOT UNDER NWS
QUALITY CONTROL.  THEY ALSO DO NOT REPORT WEATHER SUCH
AS PRECIPITATION OR FOG.

IAZ001>003-012>014-020>022-031>034-043>046-111800-
   NORTHWEST IOWA

CITY           SKY/WX    TMP DP  RH WIND       PRES   REMARKS
CARROLL *      CLOUDY    10   3  72 SE6       30.32S WCI   1
CHEROKEE *     CLOUDY    15   6  69 S9        30.30F WCI   3
DENISON *      CLOUDY    14   5  67 SE7       30.29R WCI   4
LE MARS *      CLOUDY    16  10  79 S12       30.30S WCI   3
ORANGE CITY *  CLOUDY    16   9  73 S7        30.27S WCI   6
SHELDON *      CLOUDY    14   7  73 S12       30.26S WCI   0
SIOUX CITY     CLOUDY    19  11  70 S12       30.30S WCI   7
SPENCER        CLOUDY    13   4  67 S10       30.29R WCI   0
STORM LAKE *   CLOUDY    12   5  73 S9        30.28S WCI   0
$$

IAZ055>058-069>071-079>083-090>094-111800-
   SOUTHWEST IOWA

CITY           SKY/WX    TMP DP  RH WIND       PRES   REMARKS
ATLANTIC *     CLOUDY    16   3  57 SE6       30.32S WCI   7
AUDUBON *      CLOUDY    14   3  62 SE5       30.30F WCI   6
CLARINDA *     CLOUDY    23   9  54 VRB5      30.34S WCI  17
COUNCIL BLFS * CLOUDY    16   7  67 E8        30.29F WCI   5
CRESTON *      CLOUDY    18   3  53 E6        30.32R WCI   9
HARLAN  *      CLOUDY    16   5  62 SE6       30.34F WCI   7
LAMONI         CLOUDY    19   0  43 E6        30.32S WCI  11
RED OAK *      CLOUDY    19   7  58 SE5       30.33R WCI  13
SHENANDOAH *   MOSUNNY   23  12  63 E5        30.33F WCI  17
$$

IAZ047>049-059>061-072>074-084-111800-
   CENTRAL IOWA

CITY           SKY/WX    TMP DP  RH WIND       PRES   REMARKS
AMES           CLOUDY    10   1  67 S5        30.35R WCI   2
ANKENY *       SUNNY     12   0  57 CALM      30.36R
BOONE *        SUNNY      9   0  66 S6        30.32S WCI  -1
CHARITON *     SUNNY     16   1  53 VRB5      30.34S WCI   9
DES MOINES     MOSUNNY   14   0  53 S3        30.35R
GRINNELL*      SUNNY     14   5  67 E3        30.34S
KNOXVILLE *    SUNNY     14   0  52 CALM      30.33S
MARSHALLTOWN   SUNNY     12   3  67 VRB3      30.34S
NEWTON *       SUNNY     12   1  62 SE3       30.35R
PELLA *        SUNNY     16   3  57 CALM      30.36F
$$

IAZ004>006-015-016-023>025-035-036-111800-
   NORTH CENTRAL IOWA

CITY           SKY/WX    TMP DP  RH WIND       PRES   REMARKS
ALGONA *       MOSUNNY    9   1  72 S12       30.31R WCI  -6
CLARION *      SUNNY      5  -2  72 S3        30.33R
ESTHERVILLE    CLOUDY     8   1  73 S13       30.29R WCI  -8
FORT DODGE *   CLOUDY    12   0  57 SW8       30.34R WCI   1
MASON CITY     CLOUDY     8  -2  63 SE6       30.33R WCI  -2
FOREST CITY *  SUNNY      9   0  66 S3        30.32R
WEBSTER CITY * SUNNY     10   0  61 SE9       30.32R WCI  -2
IOWA FALLS *     N/A      9   0  66 CALM      30.34R HAZE
$$

IAZ007>011-017>019-026>030-037>042-050>054-066-111800-
   NORTHEAST IOWA

CITY           SKY/WX    TMP DP  RH WIND       PRES   REMARKS
CEDAR RAPIDS   SUNNY     16   4  59 VRB5      30.34S WCI   9
CHARLES CITY * SUNNY      7  -4  61 CALM      30.33S
CLINTON *      SUNNY     22   4  46 CALM      30.37R
DECORAH *      SUNNY      9  -4  56 CALM      30.32R
DUBUQUE        SUNNY     12  -1  56 CALM      30.33R
MONTICELLO *   SUNNY     14  -2  48 CALM      30.35S
OELWEIN *      SUNNY      9   0  66 CALM      30.34S
WATERLOO       SUNNY     10   0  63 CALM      30.35S
$$

IAZ064-065-067-068-078-111800-
   EAST CENTRAL IOWA

CITY           SKY/WX    TMP DP  RH WIND       PRES   REMARKS
DAVENPORT      SUNNY     17   1  49 VRB5      30.36S WCI  10
IOWA CITY      SUNNY     17   3  54 S5        30.39R WCI  10
MT. PLEASANT * SUNNY     21   7  53 SE5       30.37S WCI  15
MUSCATINE *    SUNNY     18   1  49 CALM      30.39S
QUAD CITIES    SUNNY     18   0  45 CALM      30.37S
$$

IAZ062-063-075>077-085>089-095>099-111800-
   SOUTHEAST IOWA

CITY           SKY/WX    TMP DP  RH WIND       PRES   REMARKS
BURLINGTON     SUNNY     18   4  54 CALM      30.36S
FAIRFIELD *    SUNNY     16   3  57 CALM      30.36F
FORT MADISON * SUNNY     18   7  62 CALM      30.38R
KEOKUK *       SUNNY     18   5  57 SE7       30.37S WCI   8
OSKALOOSA *      N/A     16   4  60 SE5       30.35F WCI   9
OTTUMWA        SUNNY     15   6  67 E6        30.34F WCI   6
WASHINGTON *   SUNNY     16   1  53 VRB5      30.38S WCI   9
$$

ABBREVIATIONS USED IN REMARKS
   TC - TEMPERATURES IN CELSIUS
  WCI - WIND CHILL INDEX
   HX - HEAT INDEX
  VSB - VISIBILITY
$$





USA.gov is the U.S. government's official web portal to all federal, state and local government web resources and services.